Location: Helsinki
(60.1699°N, 24.9384°E)
Time: 12:00:34
(UTC+02:00)

Transit 2A Rocket - Pass Details

Date: 30 September 2023
Orbit: 593 x 903 km, 66.7° (Epoch: 06 December)

Event Time Altitude Azimuth Distance (km) Brightness Sun altitude
Rises 22:09:25 0° 309° (NW) 3,017 9.6 -23.2°
Reaches altitude 10° 22:11:48 10° 306° (NW) 2,058 8.3 -23.5°
Maximum altitude 22:16:21 63° 226° (SW) 693 4.7 -23.9°
Enters shadow 22:16:27 63° 218° (SW) 693 4.7 -23.9°
Drops below altitude 10° 22:20:39 10° 145° (SE) 1,942 - -24.3°
Sets 22:22:51 0° 143° (SE) 2,830 - -24.5°
